Cape Girardeau, MO

5:21 PM CST on November 23, 2017 (GMT -0600)
Cape Girardeau Regional

Weather History for KCGI - March, 2014

Change the Weather History Date:

Saturday, March 8, 2014

  Actual Average Record
Temperature  
Mean Temperature 42 °F 45 °F  
Max Temperature 54 °F 55 °F 78 °F (1974)
Min Temperature 30 °F 34 °F 10 °F (1996)
Degree Days  
Heating Degree Days 23 21  
Month to date heating degree days 271 173  
Since 1 July heating degree days 4196 3670  
Cooling Degree Days 0 0  
Month to date cooling degree days 0 0  
Year to date cooling degree days 0 0  
Moisture  
Dew Point 34 °F    
Average Humidity 78    
Maximum Humidity 96    
Minimum Humidity 59    
Precipitation  
Precipitation T in 0.14 in 4.29 in (1964)
Month to date precipitation 0.65 1.01  
Year to date precipitation 3.79 7.89  
Sea Level Pressure  
Sea Level Pressure 30.12 in    
Wind  
Wind Speed 7 mph (NNW)    
Max Wind Speed 18 mph    
Max Gust Speed 21 mph    
Visibility 3 miles    
Events Fog    
T = Trace of Precipitation, MM = Missing Value Source: NWS Daily Summary

Daily Weather History Graph

Daily Weather History Graph

Search for Another Location

Airport or City:

Trip Planner

Search our weather history database for the weather conditions in past years. The results will help you decide how hot, cold, wet, or windy it might be!

Date:

Astronomy

Mar. 08, 2014 Rise Set
Actual Time 6:19 AM CST 5:59 PM CST
Civil Twilight 5:53 AM CST 6:25 PM CST
Nautical Twilight 5:23 AM CST 6:55 PM CST
Astronomical Twilight 4:53 AM CST 7:25 PM CST
Moon 11:08 AM CST (3/8) 12:48 AM CST (3/8)
Length of Visible Light 12h 31m
Length of Day
11h 39m
First Quarter, 52% of the Moon is Illuminated
Mar 8
First Quarter
Mar 16
Full
Mar 23
Last Quarter
Mar 30
New
Apr 7
First Quarter

Hourly Weather History & Observations

Time (CST) Temp. Windchill Dew Point Humidity Pressure Visibility Wind Dir Wind Speed Gust Speed Precip Events Conditions
12:53 AM 30.9 °F - 28.9 °F 92% 30.04 in 3.0 mi Calm Calm - N/A   Clear
1:03 AM 30.9 °F 27.5 °F 28.9 °F 92% 30.04 in 2.5 mi WSW 3.5 mph - N/A   Clear
1:10 AM 30.9 °F - 28.9 °F 92% 30.04 in 3.0 mi Calm Calm - N/A   Clear
1:19 AM 30.0 °F 26.5 °F 28.0 °F 92% 30.04 in 2.5 mi West 3.5 mph - N/A   Clear
1:39 AM 30.0 °F - 28.0 °F 92% 30.03 in 3.0 mi Calm Calm - N/A   Clear
1:53 AM 30.0 °F - 28.0 °F 92% 30.03 in 4.0 mi Calm Calm - N/A   Clear
2:53 AM 30.9 °F - 28.9 °F 92% 30.03 in 3.0 mi Calm Calm - N/A   Clear
3:53 AM 30.9 °F - 28.9 °F 92% 30.04 in 3.0 mi Calm Calm - N/A   Clear
4:53 AM 32.0 °F 28.7 °F 30.0 °F 92% 30.04 in 3.0 mi SE 3.5 mph - N/A   Clear
5:03 AM 32.0 °F - 30.0 °F 92% 30.04 in 2.0 mi Calm Calm - N/A   Clear
5:37 AM 33.1 °F 30.0 °F 30.0 °F 89% 30.04 in 3.0 mi SE 3.5 mph - N/A   Clear
5:53 AM 33.1 °F - 30.0 °F 89% 30.06 in 3.0 mi Calm Calm - N/A   Clear
6:02 AM 32.0 °F - 30.0 °F 92% 30.05 in 3.0 mi Calm Calm - N/A   Scattered Clouds
6:10 AM 30.9 °F - 28.9 °F 92% 30.05 in 2.5 mi Calm Calm - N/A   Mostly Cloudy
6:26 AM 34.0 °F - 30.9 °F 89% 30.05 in 3.0 mi Calm Calm - N/A   Mostly Cloudy
6:33 AM 33.1 °F 30.0 °F 30.9 °F 92% 30.05 in 2.0 mi SE 3.5 mph - N/A   Mostly Cloudy
6:40 AM 33.1 °F 30.0 °F 30.9 °F 92% 30.05 in 1.8 mi SE 3.5 mph - N/A   Overcast
6:53 AM 33.1 °F 28.7 °F 30.9 °F 92% 30.07 in 1.5 mi South 4.6 mph - N/A   Overcast
7:42 AM 35.1 °F - 32.0 °F 89% 30.07 in 2.0 mi Calm Calm - N/A   Overcast
7:53 AM 34.0 °F - 32.0 °F 92% 30.08 in 2.0 mi Calm Calm - N/A   Overcast
8:06 AM 35.1 °F - 33.1 °F 92% 30.08 in 2.0 mi Calm Calm - N/A   Overcast
8:14 AM 35.1 °F - 33.1 °F 92% 30.08 in 1.8 mi Calm Calm - N/A   Overcast
8:53 AM 37.0 °F - 35.1 °F 93% 30.10 in 1.5 mi Calm Calm - N/A   Overcast
9:09 AM 37.0 °F - 36.0 °F 96% 30.10 in 0.5 mi Calm Calm - N/A Fog Fog
9:16 AM 37.0 °F - 37.0 °F 100% 30.10 in 0.2 mi Calm Calm - N/A Fog Fog
9:33 AM 37.9 °F - 37.0 °F 97% 30.11 in 0.8 mi Calm Calm - N/A   Overcast
9:50 AM 39.2 °F 34.2 °F 37.4 °F 93% 30.12 in 1.0 mi West 6.9 mph - N/A   Overcast
9:53 AM 39.0 °F 34.0 °F 37.9 °F 96% 30.13 in 1.0 mi West 6.9 mph - N/A   Overcast
10:53 AM 39.9 °F 35.8 °F 37.9 °F 93% 30.14 in 1.0 mi NW 5.8 mph - N/A   Overcast
11:17 AM 42.1 °F - 39.0 °F 89% 30.12 in 2.5 mi Calm Calm - N/A   Mostly Cloudy
11:26 AM 44.1 °F - 39.0 °F 82% 30.12 in 3.0 mi Calm Calm - N/A   Haze
11:53 AM 46.0 °F 44.8 °F 41.0 °F 83% 30.12 in 4.0 mi South 3.5 mph - N/A   Haze
12:38 PM 53.1 °F - 39.0 °F 59% 30.11 in 8.0 mi NNW 16.1 mph - N/A   Clear
12:53 PM 51.1 °F - 37.9 °F 61% 30.11 in 6.0 mi North 13.8 mph - N/A   Haze
1:53 PM 48.9 °F - 39.0 °F 69% 30.12 in 4.0 mi North 13.8 mph - N/A   Haze
2:53 PM 48.0 °F - 37.9 °F 68% 30.15 in 3.0 mi North 13.8 mph - N/A   Haze
3:53 PM 44.1 °F 37.4 °F 36.0 °F 73% 30.17 in 3.0 mi NNW 13.8 mph - 0.00 in   Haze
4:08 PM 43.0 °F 35.7 °F 36.0 °F 76% 30.16 in 2.5 mi NNW 15.0 mph - N/A   Haze
4:53 PM 42.1 °F 36.1 °F 36.0 °F 79% 30.20 in 2.0 mi NNW 10.4 mph - N/A   Haze
5:53 PM 41.0 °F 35.8 °F 36.0 °F 82% 30.22 in 2.0 mi NNW 8.1 mph - N/A   Haze
6:09 PM 41.0 °F 35.8 °F 36.0 °F 82% 30.22 in 3.0 mi NW 8.1 mph - N/A   Haze
6:53 PM 41.0 °F 34.3 °F 36.0 °F 82% 30.24 in 3.0 mi NNW 11.5 mph - N/A   Haze
7:33 PM 41.0 °F 34.3 °F 36.0 °F 82% 30.23 in 3.0 mi North 11.5 mph - N/A   Haze
7:53 PM 39.9 °F 33.4 °F 36.0 °F 86% 30.24 in 3.0 mi North 10.4 mph - N/A   Overcast
8:53 PM 39.9 °F 33.9 °F 35.1 °F 83% 30.27 in 3.0 mi North 9.2 mph - N/A   Haze
9:07 PM 39.0 °F 31.0 °F 35.1 °F 86% 30.26 in 3.0 mi North 13.8 mph - N/A   Overcast
9:50 PM 39.2 °F 31.6 °F 33.8 °F 81% 30.27 in 3.0 mi North 12.7 mph - N/A   Haze
9:53 PM 39.0 °F 32.3 °F 34.0 °F 82% 30.28 in 3.0 mi North 10.4 mph - N/A   Haze
10:53 PM 37.9 °F 33.5 °F 34.0 °F 86% 30.30 in 3.0 mi North 5.8 mph - N/A   Overcast
11:53 PM 37.0 °F 28.1 °F 32.0 °F 82% 30.28 in 5.0 mi North 15.0 mph - N/A   Haze